Location: Newark
(43.0000°N, 1.6781°W)
Time: 21:47:08
(UTC+00:00)

Vanguard 1 - Pass Details

Date: 10 December 2021
Orbit: 652 x 3830 km, 34.2° (Epoch: 16 January)

Event Time Altitude Azimuth Distance (km) Brightness Sun altitude
Rises 22:07:24 0° 233° (SW) 6,170 14.3 -59.3°
Reaches altitude 10° 22:11:00 10° 229° (SW) 5,507 13.9 -59.9°
Enters shadow 22:15:09 23° 222° (SW) 4,850 13.5 -60.5°
Exits shadow 22:55:40 - 84° (E) 7,512 14.4 -66.0°
Sets 22:56:12 0° 84° (E) 7,600 14.5 -66.0°
